EA3GYL La Torregassa ES current weather conditions

sailwx.info

Wind from 138 at 3 knots gusting 7

Air temperature 32.8° C
Dewpoint 16.6° C

Last reported at 2015-Jul-03 11:50 UTC.
Time now 2015-Jul-03 12:24 UTC

Location: N 41°17' E 001°31'.
View on Google Maps.

See reports from other nearby stations

  
Tides and Currents Weather Stations Pressure Air Temp Water Temp Dewpoint Dewpoint Depression Visibility Wind Speed Wind Dir Waves Ship Positions
date/time (UTC)wind fromknots sea level pressurealtimeterstation pressurevisibilityair tempwater tempwave heightnotes
2015-Jul-03 11:50 138 3 gusting 7 32.8
2015-Jul-03 11:40 109 3 gusting 8 33.3
2015-Jul-03 11:30 111 2 gusting 10 33.3
2015-Jul-03 11:20 168 2 gusting 6 33.3
2015-Jul-03 11:10 187 2 gusting 7 33.3
2015-Jul-03 11:00 137 2 gusting 6 33.3
2015-Jul-03 10:50 160 1 gusting 6 33.3
2015-Jul-03 10:40 151 2 gusting 5 32.8
2015-Jul-03 10:30 135 2 gusting 8 32.8
2015-Jul-03 10:20 115 2 gusting 6 32.8
2015-Jul-03 10:10 111 3 gusting 7 32.2
2015-Jul-03 10:00 079 2 gusting 6 32.2
2015-Jul-03 09:50 085 3 gusting 7 31.7
2015-Jul-03 09:40 067 4 gusting 6 31.7
2015-Jul-03 09:30 067 5 gusting 11 31.1
2015-Jul-03 09:20 064 4 gusting 8 30.6
2015-Jul-03 09:10 064 4 gusting 8 30.6
2015-Jul-03 09:00 048 4 gusting 10 30.6
2015-Jul-03 08:50 048 5 gusting 8 30.6
2015-Jul-03 08:40 057 4 gusting 10 30.0
2015-Jul-03 08:30 050 4 gusting 8 30.0
2015-Jul-03 08:20 059 4 gusting 8 29.4
2015-Jul-03 08:10 051 4 gusting 8 28.9
2015-Jul-03 08:00 043 3 gusting 9 28.9
2015-Jul-03 07:50 050 3 gusting 7 28.3
2015-Jul-03 07:40 056 3 gusting 6 28.3
2015-Jul-03 07:30 057 3 gusting 7 27.8
2015-Jul-03 07:20 044 3 gusting 6 27.8
2015-Jul-03 07:10 064 2 gusting 6 27.2
2015-Jul-03 07:00 078 1 gusting 5 27.2
2015-Jul-03 06:50 096 1 gusting 3 26.7
2015-Jul-03 06:40 078 0 gusting 4 27.8
2015-Jul-03 06:30 033 27.8
2015-Jul-03 06:20 319 26.7
2015-Jul-03 06:10 350 0 gusting 2 26.7
2015-Jul-03 06:00 002 0 gusting 2 25.6
2015-Jul-03 05:50 25.0
2015-Jul-03 05:40 23.9
2015-Jul-03 05:30 064 24.4
2015-Jul-03 05:20 295 0 gusting 2 24.4
2015-Jul-03 05:10 279 0 gusting 2 24.4
2015-Jul-03 05:00 287 0 gusting 2 23.9
2015-Jul-03 04:50 23.3
2015-Jul-03 04:40 23.3
2015-Jul-03 04:30 23.3
2015-Jul-03 04:20 023 0 gusting 2 23.9
2015-Jul-03 04:10 301 0 gusting 1 24.4
2015-Jul-03 04:00 342 0 gusting 1 24.4
2015-Jul-03 03:50 349 0 gusting 2 24.4
2015-Jul-03 03:40 23.3
2015-Jul-03 03:30 23.3
2015-Jul-03 03:20 218 0 gusting 1 23.3
2015-Jul-03 03:10 23.9
2015-Jul-03 03:00 221 23.9
2015-Jul-03 02:50 209 1 gusting 2 24.4
2015-Jul-03 02:40 001 2 gusting 6 26.1
2015-Jul-03 02:30 358 1 gusting 4 26.1
2015-Jul-03 02:20 014 2 gusting 5 26.1
2015-Jul-03 02:10 012 3 gusting 7 26.1
2015-Jul-03 02:00 013 3 gusting 8 26.1
2015-Jul-03 01:50 009 3 gusting 7 26.1
2015-Jul-03 01:40 015 3 gusting 7 26.7
2015-Jul-03 01:30 005 4 gusting 10 26.7
2015-Jul-03 01:20 357 3 gusting 8 26.1
2015-Jul-03 01:10 004 3 gusting 7 26.1
2015-Jul-03 01:00 003 3 gusting 6 26.1
2015-Jul-03 00:50 005 3 gusting 7 26.1
2015-Jul-03 00:40 006 3 gusting 6 25.6
2015-Jul-03 00:30 002 3 gusting 6 25.6
2015-Jul-03 00:20 359 3 gusting 6 25.6
2015-Jul-03 00:10 356 1 gusting 6 25.6
2015-Jul-03 00:00 005 1 gusting 3 25.0
2015-Jul-02 23:50 350 1 gusting 6 25.6
2015-Jul-02 23:40 354 1 gusting 5 25.6
2015-Jul-02 23:30 351 2 gusting 6 25.6
2015-Jul-02 23:20 350 3 gusting 6 25.6
2015-Jul-02 23:10 354 3 gusting 7 25.6
2015-Jul-02 23:00 357 3 gusting 7 25.6
2015-Jul-02 22:50 002 2 gusting 6 25.6
2015-Jul-02 22:40 002 4 gusting 6 25.6
2015-Jul-02 22:30 353 2 gusting 7 25.6
2015-Jul-02 22:20 013 1 gusting 4 24.4
2015-Jul-02 22:10 038 1 gusting 3 24.4
2015-Jul-02 22:00 011 1 gusting 5 25.0
2015-Jul-02 21:50 023 2 gusting 6 25.6
2015-Jul-02 21:40 005 2 gusting 6 25.6
2015-Jul-02 21:30 011 2 gusting 6 25.0
2015-Jul-02 21:20 005 0 gusting 6 25.0
2015-Jul-02 21:10 24.4
2015-Jul-02 21:00 24.4
2015-Jul-02 20:50 25.0
2015-Jul-02 20:40 25.0
2015-Jul-02 20:20 25.6
2015-Jul-02 20:10 25.6
2015-Jul-02 20:00 25.6
2015-Jul-02 19:50 076 26.1
2015-Jul-02 19:40 087 0 gusting 1 26.7
2015-Jul-02 19:30 062 0 gusting 3 27.8
2015-Jul-02 19:20 27.8
2015-Jul-02 19:10 28.3
2015-Jul-02 19:00 075 1 gusting 1 28.3
2015-Jul-02 18:50 004 2 gusting 6 28.9
2015-Jul-02 18:40 355 2 gusting 6 28.9
2015-Jul-02 18:30 002 4 gusting 9 28.9
2015-Jul-02 18:20 012 4 gusting 8 28.9
2015-Jul-02 18:10 024 5 gusting 10 29.4
2015-Jul-02 18:00 036 6 gusting 12 29.4
2015-Jul-02 17:50 033 6 gusting 13 30.0
2015-Jul-02 17:40 030 5 gusting 12 30.6
2015-Jul-02 17:30 040 5 gusting 12 30.6
2015-Jul-02 17:20 044 4 gusting 11 30.6
2015-Jul-02 17:10 049 5 gusting 10 30.6
2015-Jul-02 17:00 060 3 gusting 9 30.6
2015-Jul-02 16:50 064 3 gusting 6 30.0
2015-Jul-02 16:40 067 3 gusting 7 29.4
2015-Jul-02 16:30 080 3 gusting 6 29.4
2015-Jul-02 16:20 094 3 gusting 6 29.4
2015-Jul-02 16:10 075 2 gusting 6 29.4
2015-Jul-02 16:00 056 2 gusting 6 30.0
2015-Jul-02 15:50 064 3 gusting 6 29.4
2015-Jul-02 15:40 086 3 gusting 6 29.4
2015-Jul-02 15:30 067 3 gusting 9 29.4
2015-Jul-02 15:20 081 3 gusting 7 30.0
2015-Jul-02 15:10 081 3 gusting 7 30.6
2015-Jul-02 15:00 072 3 gusting 6 30.0
2015-Jul-02 14:50 067 3 gusting 7 30.0
2015-Jul-02 14:40 107 3 gusting 6 30.0
2015-Jul-02 14:30 091 3 gusting 6 29.4
2015-Jul-02 14:20 075 3 gusting 8 29.4
2015-Jul-02 14:10 093 3 gusting 7 30.0
2015-Jul-02 14:00 078 5 gusting 7 30.0
2015-Jul-02 13:50 078 6 gusting 10 30.0
2015-Jul-02 13:40 086 6 gusting 13 30.0
2015-Jul-02 13:30 069 6 gusting 13 30.0
2015-Jul-02 13:20 072 6 gusting 13 30.0
2015-Jul-02 13:10 077 6 gusting 13 30.0
2015-Jul-02 13:00 072 5 gusting 11 30.0
2015-Jul-02 12:50 067 4 gusting 10 29.4
2015-Jul-02 12:40 075 4 gusting 8 30.0
2015-Jul-02 12:30 072 3 gusting 6 30.0
2015-Jul-02 12:20 077 4 gusting 9 30.0
2015-Jul-02 12:10 072 5 gusting 8 30.0
2015-Jul-02 12:00 081 6 gusting 10 29.4
2015-Jul-02 11:50 093 6 gusting 12 29.4
2015-Jul-02 11:40 086 4 gusting 9 30.0
2015-Jul-02 11:30 079 3 gusting 6 30.6
2015-Jul-02 11:20 055 4 gusting 8 31.1
2015-Jul-02 11:10 048 4 gusting 8 31.1
2015-Jul-02 11:00 051 5 gusting 8 31.1
2015-Jul-02 10:50 050 6 gusting 10 30.6
2015-Jul-02 10:40 049 5 gusting 11 31.7
2015-Jul-02 10:30 039 5 gusting 10 31.7
2015-Jul-02 10:20 029 5 gusting 10 31.7
2015-Jul-02 10:10 038 4 gusting 9 30.6
2015-Jul-02 10:00 041 5 gusting 10 30.0
2015-Jul-02 09:50 028 4 gusting 10 29.4
2015-Jul-02 09:40 031 5 gusting 12 29.4
2015-Jul-02 09:30 033 5 gusting 13 28.9
2015-Jul-02 09:20 033 4 gusting 9 28.9
2015-Jul-02 09:10 028 5 gusting 11 28.3
2015-Jul-02 09:00 026 5 gusting 10 28.3
2015-Jul-02 08:50 029 5 gusting 9 28.9
2015-Jul-02 08:40 029 5 gusting 12 28.3
2015-Jul-02 08:30 022 4 gusting 10 28.3
2015-Jul-02 08:20 024 4 gusting 11 28.3
2015-Jul-02 08:10 030 4 gusting 9 27.8
2015-Jul-02 08:00 014 5 gusting 10 27.8
2015-Jul-02 07:50 021 5 gusting 11 27.8
2015-Jul-02 07:40 023 5 gusting 10 27.8
2015-Jul-02 07:30 016 5 gusting 10 27.8
2015-Jul-02 07:20 018 6 gusting 10 27.2
2015-Jul-02 07:10 012 5 gusting 13 27.2
2015-Jul-02 07:00 011 2 gusting 9 26.7
2015-Jul-02 06:50 012 2 gusting 5 26.1
2015-Jul-01 22:50 015 2 gusting 6 25.6
2015-Jul-01 22:40 007 2 gusting 6 26.1
2015-Jul-01 22:30 046 2 gusting 6 26.1
2015-Jul-01 22:20 357 1 gusting 6 26.7
2015-Jul-01 22:10 006 2 gusting 6 26.1
2015-Jul-01 22:00 002 2 gusting 6 26.7
2015-Jul-01 21:50 022 3 gusting 6 26.7
2015-Jul-01 21:40 030 2 gusting 8 26.7
2015-Jul-01 21:30 001 0 gusting 4 26.7
2015-Jul-01 21:20 002 1 gusting 4 26.7
2015-Jul-01 21:10 007 1 gusting 5 26.7
2015-Jul-01 21:00 001 0 gusting 5 26.7
2015-Jul-01 20:50 006 1 gusting 3 26.7
2015-Jul-01 20:40 348 2 gusting 5 26.7
2015-Jul-01 20:30 025 3 gusting 8 26.7
2015-Jul-01 20:20 020 2 gusting 7 26.7
2015-Jul-01 20:10 344 2 gusting 5 26.7
2015-Jul-01 20:00 017 2 gusting 6 26.7
2015-Jul-01 19:50 012 0 gusting 6 26.1
2015-Jul-01 19:40 035 0 gusting 2 26.7
2015-Jul-01 19:30 043 0 gusting 0 26.7
2015-Jul-01 19:20 043 0 gusting 3 26.7
2015-Jul-01 19:10 041 0 gusting 3 26.7
2015-Jul-01 19:00 058 0 gusting 3 26.7
2015-Jul-01 18:50 043 0 gusting 2 27.2
2015-Jul-01 16:40 094 4 gusting 9 29.4
2015-Jul-01 16:30 093 4 gusting 8 29.4
2015-Jul-01 16:20 086 3 gusting 6 30.0
2015-Jul-01 16:10 070 3 gusting 6 29.4
2015-Jul-01 16:00 086 3 gusting 6 30.0
2015-Jul-01 15:50 084 4 gusting 7 29.4
2015-Jul-01 15:40 084 4 gusting 9 30.0
2015-Jul-01 15:30 097 5 gusting 10 30.0
2015-Jul-01 15:20 088 5 gusting 9 30.0
2015-Jul-01 15:10 077 5 gusting 8 30.6
2015-Jul-01 15:00 084 5 gusting 9 30.6
2015-Jul-01 14:50 092 5 gusting 11 31.1
2015-Jul-01 14:40 093 5 gusting 9 31.1
2015-Jul-01 14:30 098 5 gusting 10 31.7
2015-Jul-01 14:20 105 5 gusting 9 31.7
2015-Jul-01 14:10 090 4 gusting 10 31.7
2015-Jul-01 14:00 079 4 gusting 9 31.1
2015-Jul-01 13:50 086 5 gusting 11 31.1
2015-Jul-01 13:40 087 5 gusting 9 30.6
2015-Jul-01 13:30 081 5 gusting 10 30.6
2015-Jul-01 13:20 092 5 gusting 9 31.1
2015-Jul-01 13:10 098 4 gusting 8 30.6
2015-Jul-01 13:00 099 5 gusting 10 30.6
2015-Jul-01 12:50 103 5 gusting 9 30.6
2015-Jul-01 12:40 103 5 gusting 11 31.1
2015-Jul-01 12:30 100 5 gusting 9 30.6
2015-Jul-01 12:20 101 4 gusting 10 31.1
2015-Jul-01 12:10 097 5 gusting 8 30.6
2015-Jul-01 12:00 099 4 gusting 8 31.1